Location: Newark
(45.8667°N, 9.7333°E)
Time: 20:45:57
(UTC+00:00)

ITAMSAT 1 - Visible Passes

Search period start: 21 February 2020 00:00
Search period end: 02 March 2020 00:00
Orbit: 784 x 796 km, 98.9° (Epoch: 21 February)

Date Brightness Start Highest point End Pass type
(mag) Time Alt. Az. Time Alt. Az. Time Alt. Az.
21 Feb 10.9 03:35:27 10° ENE 03:36:54 11° E 03:38:21 10° ESE visible
21 Feb 7.8 05:11:53 10° NNE 05:17:09 82° ESE 05:22:23 10° SSW visible
22 Feb 8.9 04:42:36 10° NNE 04:47:38 45° E 04:52:38 10° S visible
22 Feb 11.1 17:46:01 10° WSW 17:48:11 12° W 17:50:21 10° WNW visible
23 Feb 9.9 04:13:39 10° NE 04:17:59 26° E 04:22:17 10° SSE visible
24 Feb 10.7 03:45:28 10° ENE 03:48:12 14° E 03:50:54 10° ESE visible
24 Feb 7.7 05:23:01 10° NNE 05:28:17 82° WNW 05:33:31 10° SSW visible
25 Feb 8.4 04:53:38 10° NNE 04:58:49 56° ESE 05:03:57 10° S visible
26 Feb 9.6 04:24:33 10° NNE 04:29:13 31° E 04:33:50 10° SSE visible
26 Feb 10.8 17:26:02 10° SW 17:29:36 19° W 17:33:13 10° NW visible
27 Feb 10.5 03:56:00 10° NE 03:59:28 18° E 04:02:56 10° SE visible
28 Feb 8.1 05:04:43 10° NNE 05:09:58 70° ESE 05:15:11 10° S visible
29 Feb 9.2 04:35:31 10° NNE 04:40:25 39° E 04:45:17 10° SSE visible
29 Feb 11.0 17:37:57 10° SW 17:40:52 15° W 17:43:49 10° NW visible
01 Mar 10.2 04:06:43 10° NE 04:10:44 22° E 04:14:43 10° SE visible
